TimePDT,TemperatureF,Dew PointF,Humidity,Sea Level PressureIn,VisibilityMPH,Wind Direction,Wind SpeedMPH,Gust SpeedMPH,PrecipitationIn,Events,Conditions,WindDirDegrees,DateUTC
12:56 AM,48.0,46.0,93,30.20,3.0,North,4.6,-,N/A,,Overcast,360,2013-10-21 07:56:00
1:56 AM,48.0,46.0,93,30.20,3.0,Calm,Calm,-,N/A,,Overcast,0,2013-10-21 08:56:00
2:56 AM,48.0,46.0,93,30.20,3.0,NNW,4.6,-,N/A,,Overcast,340,2013-10-21 09:56:00
3:56 AM,48.0,46.0,93,30.19,3.0,Calm,Calm,-,N/A,,Overcast,0,2013-10-21 10:56:00
4:56 AM,48.0,46.0,93,30.19,3.0,NNW,3.5,-,N/A,,Overcast,340,2013-10-21 11:56:00
5:56 AM,48.0,46.0,93,30.18,3.0,Calm,Calm,-,N/A,,Overcast,0,2013-10-21 12:56:00
6:16 AM,48.2,46.4,93,30.17,2.0,NE,3.5,-,0.00,,Light Drizzle,50,2013-10-21 13:16:00
6:56 AM,48.0,46.0,93,30.18,2.0,Calm,Calm,-,0.00,,Light Drizzle,0,2013-10-21 13:56:00
7:56 AM,48.9,46.0,90,30.19,2.0,Calm,Calm,-,0.00,,Overcast,0,2013-10-21 14:56:00
8:56 AM,48.9,46.0,90,30.20,1.5,NNE,3.5,-,N/A,,Overcast,30,2013-10-21 15:56:00
9:56 AM,50.0,46.9,89,30.20,1.5,North,3.5,-,N/A,,Overcast,10,2013-10-21 16:56:00
10:56 AM,50.0,46.9,89,30.20,1.5,NNW,5.8,-,N/A,,Overcast,330,2013-10-21 17:56:00
11:56 AM,50.0,46.9,89,30.21,1.5,NNW,3.5,-,N/A,,Overcast,330,2013-10-21 18:56:00
12:56 PM,51.1,46.9,86,30.19,1.5,WNW,5.8,-,N/A,,Overcast,300,2013-10-21 19:56:00
1:56 PM,50.0,46.9,89,30.18,4.0,NNE,3.5,-,N/A,,Overcast,20,2013-10-21 20:56:00
2:56 PM,50.0,46.9,89,30.17,4.0,WNW,3.5,-,N/A,,Overcast,290,2013-10-21 21:56:00
3:56 PM,50.0,46.9,89,30.15,6.0,West,3.5,-,N/A,,Overcast,280,2013-10-21 22:56:00
4:56 PM,50.0,46.9,89,30.15,7.0,NW,3.5,-,N/A,,Overcast,310,2013-10-21 23:56:00
5:56 PM,50.0,46.9,89,30.14,7.0,NW,3.5,-,N/A,,Overcast,310,2013-10-22 00:56:00
6:56 PM,50.0,46.9,89,30.14,6.0,NNW,4.6,-,N/A,,Overcast,330,2013-10-22 01:56:00
7:56 PM,48.9,46.9,93,30.14,7.0,Calm,Calm,-,N/A,,Overcast,0,2013-10-22 02:56:00
8:40 PM,48.2,46.4,93,30.13,1.5,NNW,3.5,-,N/A,,Overcast,340,2013-10-22 03:40:00
8:56 PM,48.9,46.9,93,30.14,1.0,Calm,Calm,-,N/A,,Overcast,0,2013-10-22 03:56:00
9:11 PM,48.2,46.4,93,30.13,1.0,Calm,Calm,-,N/A,,Overcast,0,2013-10-22 04:11:00
9:30 PM,48.2,46.4,93,30.14,0.2,Calm,Calm,-,N/A,,Overcast,0,2013-10-22 04:30:00
9:56 PM,48.0,46.0,93,30.15,0.2,North,3.5,-,N/A,,Overcast,350,2013-10-22 04:56:00
10:56 PM,48.0,46.9,96,30.16,0.2,Calm,Calm,-,N/A,Fog,Fog,0,2013-10-22 05:56:00
11:56 PM,46.9,46.0,97,30.16,0.2,North,3.5,-,N/A,Fog,Fog,10,2013-10-22 06:56:00